[[{"header":{"parameterUnit":"m.s-1","parameterCategory":1,"la1":30.2991,"la2":30.254,"lo1":-89.0895,"lo2":-89.0444,"dy":0.0017,"dx":0.0017,"nx":28,"ny":28,"refTime":"2026-02-16T03:00:00:Z","depth":0,"parameterNumber":2,"parameterNumberName":"U-component_of_WINDS"},"data":[0,0,0,0,0,0,0,0,0,0,0,0,0,0,0,0,0,0,0,0,0,0,0,0,0,0,0,0,0,0,0,0,0,0,0,0,0,0,0,0,0,0,0,0,0,0,0,0,0,0,0,0,0,0,0,0,0,0,-0.3058,-0.3057,0,-0.2979,-0.2978,-0.2977,-0.2914,-0.2913,-0.2913,-0.2912,-0.2831,-0.2829,-0.2828,0,0,0,0,0,0,0,0,0,0,0,0,0,-0.3154,-0.3152,-0.3058,-0.3057,-0.3056,-0.2979,-0.2978,-0.2977,-0.2914,-0.2913,-0.2912,-0.2912,-0.2831,-0.2829,-0.2827,0,0,0,0,0,0,0,0,0,0,0,0,0,-0.3097,-0.3152,-0.3058,-0.3015,-0.3011,-0.298,-0.2978,-0.2977,-0.2914,-0.2913,-0.2912,-0.2911,-0.2832,-0.283,-0.2827,-0.2832,0,0,-0.282,-0.2819,0,0,0,0,0,0,0,0,-0.3101,-0.3094,-0.3023,-0.3018,-0.3013,-0.2955,-0.2982,-0.2928,-0.2914,-0.2951,-0.2912,-0.2911,-0.2873,-0.2867,-0.2854,-0.2828,-0.2825,-0.282,-0.2818,-0.2817,-0.2817,0,0,0,0,0,0,0,-0.3105,-0.3097,-0.3027,-0.3022,-0.3016,-0.3,-0.2991,-0.2972,-0.2918,-0.2948,-0.2943,-0.2934,-0.287,-0.2857,-0.2852,-0.2824,-0.282,-0.2818,-0.2816,-0.2815,-0.2798,-0.2799,0,0,0,0,0,0,-0.3115,-0.3101,-0.3029,-0.3025,-0.3055,-0.2999,-0.2989,-0.2975,-0.2918,-0.2909,-0.2935,-0.2932,-0.2861,-0.2855,-0.2849,-0.2852,-0.2817,-0.2815,-0.2814,-0.2797,-0.2798,-0.2799,0,0,0,0,0,0,-0.3117,-0.3109,-0.3033,-0.3061,-0.305,-0.2998,-0.2983,-0.2974,-0.2961,-0.2909,-0.2899,-0.2932,-0.286,-0.2852,-0.2837,-0.2848,-0.2814,-0.2812,-0.2796,-0.2798,-0.2799,-0.2857,0,0,0,0,0,0,-0.312,-0.3111,-0.3112,-0.3062,-0.3049,-0.3022,-0.2984,-0.2973,-0.2957,-0.2951,-0.2903,-0.2894,-0.2859,-0.2841,-0.2835,-0.2844,-0.281,-0.2795,-0.2797,-0.2799,-0.2854,-0.2861,-0.2866,0,0,0,0,0,-0.3124,-0.3131,-0.3112,-0.3104,-0.305,-0.3023,-0.3016,-0.2975,-0.2958,-0.2959,-0.2926,-0.2896,-0.2848,-0.284,-0.2832,-0.2841,-0.2794,-0.2796,-0.2798,-0.2852,-0.2859,-0.2866,0,0,0,0,0,0,-0.3184,-0.3124,-0.3102,-0.3093,-0.3064,-0.3012,-0.3013,-0.2985,-0.2959,-0.2955,-0.2906,-0.2896,-0.2886,-0.2862,-0.2854,-0.2844,-0.2817,-0.2818,-0.286,-0.2867,-0.2873,-0.288,-0.2808,0,0,0,0,0,-0.3196,-0.318,-0.3128,-0.3125,-0.3111,-0.3065,-0.3052,-0.3023,-0.299,-0.2978,-0.2943,-0.2913,-0.2891,-0.2877,-0.2854,-0.285,-0.2839,-0.2853,-0.2859,-0.2864,-0.2865,-0.2862,-0.2868,-0.2807,-0.2806,-0.2806,0,0,-0.3221,-0.3186,-0.3179,-0.3136,-0.311,-0.3094,-0.3055,-0.3039,-0.3027,-0.2975,-0.2959,-0.2933,-0.2895,-0.2886,-0.288,-0.2866,-0.288,-0.2866,-0.2871,-0.287,-0.2865,-0.2871,-0.2876,-0.2808,-0.2808,-0.2807,0,0,-0.3259,-0.3231,-0.3226,-0.3201,-0.3161,-0.313,-0.3129,-0.3082,-0.3063,-0.3046,-0.3006,-0.2991,-0.2954,-0.2929,-0.2912,-0.2941,-0.2912,-0.2934,-0.2966,-0.2964,-0.2969,-0.2973,-0.2984,-0.2989,-0.2936,-0.2936,-0.2936,0,-0.3295,-0.327,-0.3227,-0.3214,-0.3197,-0.3149,-0.3144,-0.3121,-0.3077,-0.3066,-0.305,-0.3003,-0.2974,-0.2959,-0.2966,-0.2953,-0.2951,-0.294,-0.2971,-0.2975,-0.2978,-0.2989,-0.2993,-0.2939,-0.2939,-0.2938,-0.2938,0,-0.3317,-0.33,-0.3301,-0.326,-0.3242,-0.3234,-0.3189,-0.3177,-0.315,-0.312,-0.3104,-0.3068,-0.3037,-0.3031,-0.3004,-0.3012,-0.3004,-0.2981,-0.2953,-0.2988,-0.2997,-0.3001,-0.2943,-0.2942,-0.2941,-0.2941,0,0,-0.3392,-0.3327,-0.3328,-0.3309,-0.3262,-0.3248,-0.3237,-0.3207,-0.3198,-0.3169,-0.3159,-0.3129,-0.3107,-0.3087,-0.3057,-0.3055,-0.3082,-0.3031,-0.3029,-0.3043,-0.309,-0.3109,-0.3114,-0.3062,-0.3062,-0.3063,-0.3093,0,-0.3423,-0.3402,-0.3362,-0.3353,-0.3338,-0.3292,-0.3283,-0.3253,-0.3225,-0.3208,-0.3177,-0.3157,-0.3128,-0.3116,-0.3112,-0.3079,-0.3091,-0.3076,-0.3053,-0.3053,-0.3066,-0.3119,-0.3139,-0.317,-0.3096,-0.3097,-0.3097,0,-0.3457,-0.3432,-0.3422,-0.3377,-0.3369,-0.3361,-0.3331,-0.3314,-0.328,-0.326,-0.3238,-0.3205,-0.3192,-0.3166,-0.3147,-0.3138,-0.3126,-0.3108,-0.3108,-0.3106,-0.3078,-0.3119,-0.3178,-0.3184,-0.3102,-0.3102,-0.3101,0,-0.3515,-0.3477,-0.3466,-0.3451,-0.3398,-0.3394,-0.3372,-0.3336,-0.3321,-0.3295,-0.3284,-0.3256,-0.3241,-0.3221,-0.3181,-0.3166,-0.3167,-0.3137,-0.315,-0.3152,-0.3154,-0.3154,-0.3213,-0.3144,-0.3144,-0.3143,-0.3143,0,-0.3555,-0.3551,-0.3491,-0.3485,-0.3479,-0.3434,-0.3429,-0.3402,-0.3371,-0.3359,-0.3317,-0.3306,-0.3254,-0.3237,-0.3206,-0.3196,-0.3189,-0.3173,-0.3165,-0.3177,-0.318,-0.317,-0.3167,-0.3145,-0.3144,-0.3144,-0.3144,0,-0.3618,-0.3578,-0.3564,-0.3515,-0.3503,-0.3501,-0.3459,-0.3451,-0.342,-0.3405,-0.3399,-0.3352,-0.333,-0.3288,-0.3254,-0.3233,-0.323,-0.3215,-0.3242,-0.3238,-0.3254,-0.3253,-0.331,-0.3315,-0.3241,-0.3242,-0.3242,0,-0.3648,-0.3644,-0.3595,-0.3584,-0.3563,-0.3546,-0.353,-0.3485,-0.3471,-0.3431,-0.3428,-0.3403,-0.3381,-0.3348,-0.3311,-0.3285,-0.327,-0.3291,-0.3266,-0.3279,-0.3272,-0.3273,-0.3273,-0.3298,-0.3299,-0.3299,-0.33,0,-0.3704,-0.3685,-0.3664,-0.3637,-0.362,-0.3596,-0.357,-0.3563,-0.3512,-0.3498,-0.3476,-0.3458,-0.3424,-0.34,-0.3369,-0.3345,-0.3315,-0.3308,-0.331,-0.3324,-0.3341,-0.3333,-0.326,-0.3308,-0.3307,-0.3306,-0.3306,-0.3306,-0.3752,-0.3747,-0.3712,-0.3691,-0.3667,-0.3643,-0.3634,-0.3603,-0.3583,-0.3552,-0.3526,-0.3507,-0.3472,-0.3427,-0.3406,-0.3389,-0.3374,-0.3377,-0.3378,-0.338,-0.3386,-0.3342,-0.3383,-0.3383,-0.3383,-0.3382,-0.3382,0,-0.3808,-0.3784,-0.3764,-0.373,-0.3713,-0.3685,-0.3655,-0.3643,-0.3626,-0.3597,-0.3576,-0.3551,-0.3527,-0.3488,-0.3461,-0.3456,-0.3441,-0.345,-0.3451,-0.3446,-0.3399,-0.3401,-0.3463,-0.3463,-0.3463,-0.3463,-0.3463,-0.3463,-0.3836,-0.3826,-0.3802,-0.378,-0.3755,-0.3735,-0.3721,-0.3699,-0.3676,-0.3649,-0.363,-0.3604,-0.3571,-0.3541,-0.3519,-0.3508,-0.3501,-0.3515,-0.35,-0.3457,-0.345,-0.3442,-0.3444,-0.3513,-0.3513,-0.3548,-0.3548,-0.3549]},{"header":{"parameterUnit":"m.s-1","parameterCategory":1,"la1":30.2991,"la2":30.254,"lo1":-89.0895,"lo2":-89.0444,"dy":0.0017,"dx":0.0017,"nx":28,"ny":28,"refTime":"2026-02-16T03:00:00:Z","depth":0,"parameterNumber":3,"parameterNumberName":"V-component_of_WINDS"},"data":[0,0,0,0,0,0,0,0,0,0,0,0,0,0,0,0,0,0,0,0,0,0,0,0,0,0,0,0,0,0,0,0,0,0,0,0,0,0,0,0,0,0,0,0,0,0,0,0,0,0,0,0,0,0,0,0,0,0,1.0908,1.0908,0,1.0883,1.0883,1.0883,1.0902,1.0903,1.0904,1.0905,1.0874,1.0873,1.0871,0,0,0,0,0,0,0,0,0,0,0,0,0,1.0967,1.0965,1.0908,1.0908,1.0907,1.0883,1.0883,1.0883,1.0902,1.0903,1.0904,1.0905,1.0875,1.0873,1.0871,0,0,0,0,0,0,0,0,0,0,0,0,0,1.0941,1.0965,1.0908,1.0914,1.0914,1.0884,1.0883,1.0883,1.0902,1.0903,1.0904,1.0906,1.0876,1.0873,1.0871,1.0831,0,0,1.0864,1.0863,0,0,0,0,0,0,0,0,1.0943,1.0939,1.0914,1.0914,1.0914,1.0897,1.0893,1.0865,1.0901,1.0906,1.0905,1.0906,1.0881,1.0878,1.087,1.083,1.0828,1.0863,1.0862,1.0861,1.086,0,0,0,0,0,0,0,1.0945,1.094,1.0898,1.0913,1.0913,1.0917,1.0914,1.0888,1.0887,1.0906,1.0907,1.0905,1.0881,1.0873,1.087,1.0828,1.0863,1.0861,1.086,1.0859,1.0753,1.0752,0,0,0,0,0,0,1.0946,1.0942,1.0899,1.0897,1.0932,1.0915,1.0912,1.0901,1.0887,1.0886,1.0904,1.0906,1.0876,1.0873,1.0869,1.0821,1.0861,1.0859,1.0857,1.0754,1.0753,1.0751,0,0,0,0,0,0,1.0948,1.0942,1.09,1.092,1.0915,1.0912,1.09,1.09,1.0892,1.0885,1.0885,1.0896,1.0877,1.0872,1.0841,1.0821,1.0858,1.0855,1.0756,1.0754,1.0752,1.0726,0,0,0,0,0,0,1.0949,1.0943,1.0929,1.092,1.0914,1.0873,1.0899,1.0899,1.0888,1.0891,1.0878,1.0876,1.0878,1.0844,1.0838,1.0818,1.0854,1.0758,1.0755,1.0752,1.0728,1.0723,1.0719,0,0,0,0,0,1.0951,1.0921,1.0928,1.0922,1.0896,1.0872,1.0869,1.0872,1.0887,1.0872,1.0867,1.0877,1.0824,1.0841,1.0834,1.0813,1.0759,1.0756,1.0753,1.0731,1.0724,1.0719,0,0,0,0,0,0,1.0926,1.092,1.0927,1.0894,1.0884,1.0876,1.0857,1.0865,1.0849,1.0852,1.0855,1.0852,1.0819,1.0813,1.0832,1.0773,1.0793,1.0789,1.0779,1.0773,1.0768,1.077,1.0852,0,0,0,0,0,1.0917,1.0899,1.0894,1.0865,1.086,1.0859,1.0849,1.0853,1.0841,1.0837,1.083,1.0817,1.0798,1.0785,1.0767,1.0728,1.0725,1.071,1.0705,1.0701,1.0697,1.0675,1.0669,1.0741,1.0741,1.0741,0,0,1.0897,1.0891,1.088,1.086,1.0852,1.0833,1.0855,1.0834,1.0819,1.0833,1.0803,1.0798,1.0784,1.0749,1.0733,1.0742,1.0676,1.0697,1.0694,1.0692,1.0672,1.0665,1.0659,1.0739,1.0739,1.0739,0,0,1.0851,1.0845,1.0821,1.0813,1.0802,1.0802,1.0796,1.0787,1.0785,1.0756,1.0766,1.0747,1.0714,1.0704,1.0694,1.0645,1.0653,1.0638,1.0612,1.0592,1.0586,1.0581,1.0563,1.0557,1.0634,1.0634,1.0634,0,1.0827,1.08,1.0806,1.0785,1.0775,1.0789,1.0763,1.0755,1.0738,1.073,1.0742,1.07,1.0692,1.0654,1.0643,1.0634,1.0627,1.064,1.0587,1.0582,1.0577,1.056,1.0553,1.0633,1.0633,1.0633,1.0633,0,1.0771,1.0752,1.0733,1.0719,1.0707,1.0683,1.0685,1.0672,1.0676,1.0675,1.0644,1.0635,1.0615,1.0606,1.061,1.0569,1.0575,1.0587,1.0607,1.0569,1.0553,1.0546,1.063,1.0631,1.0631,1.0632,0,0,1.0708,1.0699,1.0691,1.0685,1.0674,1.0659,1.0635,1.0618,1.0607,1.0594,1.0574,1.0545,1.0556,1.0545,1.0547,1.0529,1.0491,1.0543,1.0542,1.0533,1.0445,1.0437,1.0429,1.0496,1.0495,1.0494,1.0446,0,1.0662,1.0623,1.0628,1.059,1.0572,1.0585,1.0564,1.0555,1.0552,1.0536,1.0532,1.0512,1.0528,1.0522,1.0504,1.0499,1.0473,1.0503,1.0476,1.0475,1.0479,1.0421,1.0412,1.0367,1.044,1.0439,1.0438,0,1.0603,1.0591,1.0552,1.0544,1.0537,1.0518,1.0503,1.0487,1.0476,1.0475,1.0464,1.0469,1.0444,1.0465,1.043,1.045,1.0439,1.0435,1.0433,1.0431,1.0454,1.0416,1.0353,1.0346,1.0428,1.0429,1.043,0,1.0561,1.0535,1.0508,1.0502,1.0493,1.0479,1.0474,1.0465,1.0454,1.044,1.0433,1.0415,1.0405,1.039,1.039,1.0406,1.0354,1.0375,1.0352,1.0352,1.0341,1.0341,1.0274,1.0334,1.0334,1.0334,1.0334,0,1.0509,1.0484,1.0489,1.0473,1.0445,1.0451,1.0423,1.0419,1.041,1.0392,1.0401,1.0384,1.0386,1.0367,1.0367,1.0338,1.0333,1.0331,1.0331,1.033,1.033,1.0323,1.0326,1.0332,1.0333,1.0333,1.0333,0,1.0458,1.046,1.0432,1.0426,1.0423,1.0403,1.0397,1.0381,1.038,1.0357,1.0352,1.0349,1.0328,1.0327,1.0302,1.0302,1.0266,1.027,1.0271,1.0271,1.0248,1.0251,1.0174,1.0164,1.023,1.023,1.0229,0,1.0424,1.0406,1.0398,1.0388,1.0383,1.0366,1.0355,1.036,1.0348,1.0334,1.0319,1.03,1.0284,1.025,1.0245,1.0226,1.0229,1.0203,1.0226,1.0226,1.0228,1.0229,1.0227,1.0199,1.0198,1.0198,1.0197,0,1.0365,1.0367,1.0353,1.0339,1.0326,1.0315,1.0304,1.0295,1.0298,1.0284,1.0264,1.0252,1.0228,1.0208,1.019,1.0183,1.019,1.019,1.0184,1.0183,1.0184,1.0183,1.0259,1.0192,1.0192,1.0193,1.0193,1.0193,1.0321,1.0306,1.0298,1.0282,1.0275,1.0265,1.025,1.0247,1.0231,1.0213,1.0216,1.0194,1.0182,1.0159,1.0151,1.0132,1.014,1.0131,1.0129,1.0126,1.0124,1.0187,1.0128,1.0129,1.0129,1.0129,1.0129,0,1.0262,1.0258,1.0243,1.0229,1.0216,1.0226,1.0215,1.0203,1.0184,1.0174,1.0159,1.0135,1.0116,1.011,1.0091,1.0077,1.008,1.0072,1.0073,1.0071,1.0117,1.0125,1.007,1.007,1.007,1.007,1.007,1.007,1.023,1.0204,1.0206,1.0176,1.0172,1.0152,1.0145,1.0135,1.0127,1.0101,1.0086,1.0083,1.0074,1.0055,1.0037,1.0035,1.0028,1.0018,1.0018,1.0062,1.0068,1.0073,1.008,1.0017,1.0017,0.9973,0.9973,0.9972]}]]